Theta_e
323 314 312 314 304 300 294 297 298 297 297 296 298 302 304 294 302 300 295 300 302 306 311 316 323 325 325 325 325 326 328 329 331 333 333 333 333 334 335 335 336 337 339 341 341 340 338 337 337
319 312 314 308 300 295 296 298 297 298 296 295 294 295 297 295 292 291 294 299 303 307 310 315 320 322 323 323 323 324 324 325 326 326 326 326 326 328 330 330 332 333 334 336 336 336 335 335 337
310 312 309 303 297 296 297 297 296 295 295 296 292 292 292 292 293 293 296 299 302 302 306 314 318 320 321 321 321 322 322 323 323 322 323 323 323 324 324 324 326 328 330 331 332 332 333 333 332
307 311 307 300 297 300 301 297 295 294 296 296 294 290 290 292 295 296 298 299 298 300 303 312 317 319 319 318 319 320 320 320 319 320 320 320 320 321 321 321 322 323 325 326 327 327 328 327 327
310 307 299 297 298 299 296 296 296 295 295 294 295 290 288 292 295 296 297 297 297 298 300 306 314 315 315 315 316 317 317 317 317 317 316 317 316 316 317 318 319 319 320 320 321 322 323 323 325
305 304 297 294 297 296 296 295 296 294 293 292 292 290 288 293 294 294 295 295 296 296 298 300 307 310 310 310 311 312 314 313 313 312 312 311 312 312 313 314 315 316 317 318 318 318 319 320 321
303 301 297 296 297 295 295 295 294 293 292 292 293 290 288 290 292 293 293 294 295 296 297 297 298 299 303 305 306 307 308 309 308 307 306 305 305 307 307 308 310 312 313 314 313 314 314 317 319
304 302 296 297 295 296 293 292 292 294 291 290 290 290 287 290 292 292 293 293 293 294 295 296 296 296 294 295 301 302 302 302 303 302 300 299 299 299 302 303 306 307 308 310 311 311 312 315 321
307 298 295 298 294 296 291 292 291 291 289 288 288 289 289 291 291 291 291 291 292 293 294 295 294 294 293 293 293 294 296 296 296 295 296 293 293 294 294 299 301 303 304 307 309 310 310 309 310
302 297 297 300 298 294 291 293 290 291 289 288 287 287 289 290 290 289 289 289 290 291 292 293 293 293 292 291 291 290 291 291 291 290 291 290 291 293 292 293 296 298 299 303 305 306 303 302 301
300 297 299 295 294 293 292 291 290 290 289 291 289 286 288 288 289 288 288 289 289 290 291 291 291 291 290 290 289 290 289 289 289 289 289 289 289 289 289 290 290 291 293 294 296 296 296 297 298
294 292 294 296 294 293 291 290 290 290 292 290 290 288 288 287 288 288 288 288 289 289 289 288 288 288 288 288 288 288 289 288 288 288 288 288 288 288 288 288 289 290 291 293 294 294 294 294 294
293 291 291 292 292 292 294 291 291 291 288 287 287 288 287 287 287 288 289 288 288 288 287 287 287 287 287 286 287 287 286 287 287 287 287 287 287 287 287 287 288 289 291 293 293 293 292 292 292
289 289 289 288 288 288 289 289 289 288 286 285 286 286 286 287 286 286 287 286 287 287 286 286 286 286 286 285 285 285 286 286 286 286 286 286 286 286 286 287 287 289 290 292 293 292 291 291 291
288 287 286 285 286 286 288 288 287 286 285 284 285 285 285 286 286 286 287 286 287 286 286 285 285 285 285 284 285 284 285 285 285 285 286 286 286 285 285 286 287 288 290 292 292 291 291 290 290
285 286 282 283 285 285 287 287 286 285 284 283 283 283 284 284 285 286 286 287 286 285 285 286 286 284 283 283 284 284 284 284 284 285 285 285 285 285 285 285 286 287 290 291 291 290 288 288 288
282 281 280 283 284 283 283 283 283 283 284 283 282 282 283 283 284 285 286 286 284 284 284 283 283 283 283 283 283 283 283 283 284 284 285 285 285 285 284 285 285 287 289 289 290 289 288 287 287
280 280 280 281 281 280 280 281 282 282 281 283 282 282 282 282 284 284 285 285 283 283 283 283 283 283 283 283 282 283 283 283 283 284 284 284 284 284 284 284 284 286 288 288 289 288 287 287 286
281 280 279 279 280 280 279 279 282 282 280 281 281 280 280 281 283 283 283 283 282 281 281 282 282 282 282 281 281 281 281 282 283 283 284 284 284 283 283 283 284 285 286 286 287 287 287 286 286
279 278 277 279 279 278 276 277 279 279 281 283 283 282 281 280 281 281 281 281 281 281 281 281 282 282 282 282 282 282 281 281 282 283 283 283 283 283 283 282 282 283 284 284 285 286 285 284 284
278 278 277 278 277 276 274 276 277 278 278 279 282 284 283 283 282 281 280 280 280 280 280 281 282 282 282 282 281 281 281 281 282 282 282 282 283 283 282 282 282 282 283 282 283 284 285 283 283
277 278 279 277 276 273 274 271 274 275 276 277 279 281 283 283 283 282 281 280 279 280 281 281 281 281 282 282 281 281 281 280 280 281 282 282 282 282 282 282 282 282 282 282 283 283 283 284 283
277 277 277 276 273 271 270 270 273 274 275 278 279 280 282 283 283 282 281 282 281 281 280 281 281 281 282 282 281 281 280 280 280 281 281 281 282 282 282 282 282 281 281 281 282 282 282 283 282
277 277 277 275 273 266 271 273 273 274 277 279 278 279 280 281 281 283 282 282 280 280 280 280 280 280 281 281 280 281 280 280 280 280 280 280 281 281 281 281 281 281 281 281 281 281 281 281 281
276 275 271 266 264 268 269 268 278 277 278 279 280 279 280 281 281 281 280 280 279 279 279 279 279 279 280 280 280 280 280 280 281 280 280 280 280 280 280 281 281 281 281 281 281 281 280 280 280
275 275 271 264 264 267 269 267 275 277 278 279 278 279 280 280 281 281 281 281 280 280 279 279 279 279 279 280 280 280 280 280 281 281 280 280 280 280 280 280 281 280 281 281 281 280 280 280 280
273 271 274 268 261 264 269 272 277 277 278 277 277 277 279 281 280 281 280 281 280 280 279 279 279 279 279 280 280 279 279 280 280 280 281 281 280 280 280 280 280 280 280 280 280 280 279 280 280
272 275 271 269 263 261 268 267 273 277 278 277 276 277 279 278 278 279 279 279 280 280 280 279 279 279 280 280 280 280 279 280 280 280 280 280 280 281 280 280 280 280 280 280 280 280 279 279 280
270 269 270 271 268 265 263 270 275 279 279 278 279 279 280 279 279 279 279 279 280 279 279 279 278 279 279 280 280 280 280 280 280 280 280 280 280 280 280 280 280 280 280 280 279 279 279 279 279
268 270 271 268 265 266 265 272 278 278 278 278 278 278 277 278 279 278 278 278 278 278 278 278 279 279 280 280 279 280 280 280 279 280 280 280 280 280 281 280 280 280 280 280 279 279 279 278 278
Wind_Speed
7 5 1 4 3 3 2 3 1 2 2 2 2 2 3 5 1 2 1 2 3 4 5 7 10 11 11 12 14 14 14 12 12 14 15 15 16 15 15 15 15 14 16 16 14 13 14 12 10
3 2 3 3 4 2 3 2 4 3 4 7 4 2 3 3 3 5 3 1 3 5 6 6 9 10 11 13 13 14 13 13 13 14 13 15 15 14 15 15 15 15 16 15 14 14 12 10 11
2 3 3 4 3 4 4 3 4 2 7 2 4 4 2 4 3 5 3 5 5 6 6 7 10 11 13 13 13 13 13 14 14 13 14 14 14 14 13 14 14 14 15 14 14 13 10 11 12
1 4 3 3 4 4 4 3 5 7 2 2 3 7 3 2 2 5 6 5 6 7 8 8 11 12 13 13 13 13 14 14 14 14 15 14 15 14 14 13 12 12 13 14 14 12 11 11 11
3 2 2 2 3 2 2 4 6 5 4 2 2 5 3 2 6 8 7 6 7 7 8 11 13 14 15 15 14 13 14 14 14 14 14 15 15 15 14 14 14 13 12 11 12 12 11 10 11
3 3 2 3 3 1 1 6 5 3 2 3 4 7 4 5 6 6 8 8 8 8 8 9 13 14 15 15 15 14 14 15 15 15 14 15 15 15 14 15 14 13 13 13 12 12 11 12 11
4 3 4 4 3 2 5 6 5 5 6 3 5 6 3 5 7 9 9 8 9 9 9 8 9 11 13 15 15 14 14 14 15 15 14 14 15 14 15 15 15 13 13 12 12 12 11 11 10
4 3 3 4 4 5 6 3 2 2 3 2 1 5 6 7 12 11 10 9 9 8 8 7 7 8 9 9 15 14 14 15 14 15 14 13 14 14 14 15 14 15 13 13 13 12 12 12 15
1 3 3 4 6 3 5 5 1 1 6 2 2 2 2 18 14 12 9 7 6 7 7 7 7 7 7 8 9 10 12 13 12 11 12 10 6 8 12 13 14 14 13 14 14 14 15 13 17
2 3 8 2 3 3 5 3 8 5 4 3 2 4 12 15 13 12 9 7 5 5 7 6 6 7 7 6 7 7 6 6 6 8 7 6 7 9 9 11 15 14 15 14 15 16 16 13 8
2 5 2 1 2 2 5 3 4 7 4 7 8 12 13 13 10 10 8 6 7 5 6 6 6 7 6 6 4 3 3 3 4 7 7 7 7 7 7 6 6 6 11 7 9 10 9 13 9
2 1 3 1 2 3 4 6 4 5 1 2 1 17 13 14 12 11 10 9 7 7 7 7 7 8 8 5 5 4 4 5 5 7 7 7 6 7 7 5 6 6 5 7 8 7 11 12 13
3 3 1 1 3 2 4 2 4 5 1 3 11 13 13 11 9 6 9 7 8 7 7 7 7 7 7 7 5 5 6 5 5 6 9 6 6 6 5 5 5 5 5 6 8 9 9 11 12
3 2 2 1 1 1 4 3 1 3 4 7 10 10 10 11 10 6 8 8 6 7 7 7 7 7 7 6 7 6 5 5 6 6 7 8 6 5 5 5 6 6 5 6 7 8 9 10 10
4 2 1 4 2 2 1 5 8 3 6 8 8 7 7 7 7 9 9 9 9 7 9 8 8 7 7 7 6 5 4 5 5 6 8 8 7 7 6 5 5 5 5 8 9 10 10 10 9
3 2 3 1 3 1 3 7 4 5 8 8 8 6 7 7 7 6 7 8 8 9 9 8 8 8 8 7 5 5 5 5 5 5 6 8 8 7 6 5 5 4 5 6 8 8 9 9 9
4 4 3 3 4 3 5 6 2 4 6 7 8 8 8 7 5 5 7 8 9 9 9 9 9 9 9 7 6 6 6 5 5 5 5 7 8 7 6 5 5 4 6 6 7 7 8 9 8
6 5 5 5 4 1 3 13 3 5 7 10 8 8 8 9 11 8 8 7 8 7 7 9 8 9 8 6 6 5 5 4 4 5 6 7 6 8 6 6 6 5 6 6 7 9 8 6 8
4 3 4 2 2 4 7 9 10 7 6 8 10 10 11 12 5 7 7 8 8 7 9 10 11 9 8 4 3 3 3 3 4 5 7 7 7 7 7 6 6 5 6 6 7 6 8 5 3
3 4 5 1 2 2 4 13 11 10 10 13 15 14 14 7 7 8 9 9 10 10 9 9 10 11 7 3 2 3 3 3 3 3 5 7 7 7 7 7 6 7 6 7 4 3 3 4 4
4 5 4 3 1 2 5 9 8 7 7 6 10 10 11 16 15 12 12 13 10 11 11 11 11 11 8 6 6 5 4 3 2 2 3 5 7 7 7 7 6 7 6 6 5 4 5 4 5
5 4 4 5 3 5 1 9 7 6 7 8 13 15 15 16 12 12 15 13 12 12 9 9 10 11 8 8 5 6 4 4 2 3 3 4 6 6 6 7 7 7 6 8 7 6 4 3 3
3 1 5 2 3 2 2 2 9 2 7 14 16 15 17 17 17 16 17 16 14 10 11 10 10 9 7 8 7 6 5 3 4 4 6 5 4 5 5 5 6 7 6 7 9 9 9 6 4
6 5 5 4 3 4 9 8 8 8 11 7 7 13 16 15 14 14 13 11 10 8 9 9 10 9 8 9 9 10 9 8 7 6 6 4 3 3 4 5 5 5 6 6 6 8 8 7 6
1 5 2 4 3 9 1 2 15 7 8 7 13 13 14 14 15 14 14 14 12 13 12 10 11 10 9 10 10 10 9 10 10 9 7 7 4 3 4 4 4 4 5 6 6 6 6 6 5
6 4 8 10 6 5 2 11 11 7 4 7 7 8 10 14 13 15 16 14 15 14 13 12 12 10 10 10 11 9 9 6 7 8 6 6 5 5 6 5 4 5 5 5 5 4 4 5 4
6 6 2 7 2 3 6 10 12 7 10 6 8 9 15 16 14 15 13 14 14 15 15 15 13 11 11 11 8 8 7 8 8 9 8 7 6 5 7 5 5 4 4 4 4 3 4 4 3
4 1 3 3 2 6 6 7 8 5 10 8 9 15 15 11 11 10 12 13 12 13 13 13 13 14 11 11 9 8 8 7 6 6 8 8 7 7 8 6 5 5 4 4 4 3 3 3 2
2 2 1 1 4 6 2 10 11 13 5 16 17 14 15 15 13 11 11 11 12 11 12 13 13 13 10 11 10 8 9 8 7 7 6 6 7 7 7 8 7 7 6 5 4 3 3 3 2
3 8 7 6 7 4 2 17 5 6 6 7 8 7 5 7 10 8 9 10 11 12 12 13 12 12 12 11 10 10 8 8 8 7 6 6 6 6 7 7 7 6 6 5 5 4 3 4 4
Wind_Direction
328 322 92 57 71 64 263 246 104 150 163 338 32 78 104 36 112 171 243 58 45 44 8 6 35 45 47 46 49 49 48 50 45 43 38 33 29 26 27 23 21 17 14 15 26 33 30 12 2
318 291 37 93 105 133 253 194 206 148 143 131 82 65 75 94 92 120 142 95 57 43 16 19 39 46 51 53 54 53 52 54 54 48 47 40 31 24 23 17 14 15 10 10 12 16 18 1 13
267 8 87 101 116 184 216 197 141 97 147 144 108 47 60 112 113 132 144 118 88 50 15 26 50 49 46 46 54 56 56 54 53 49 48 48 40 36 35 29 26 18 15 12 17 11 12 12 11
15 8 45 109 191 233 192 170 142 138 226 50 124 86 89 345 139 139 142 111 84 56 33 35 52 53 50 43 46 57 61 60 50 49 50 49 43 37 36 26 25 27 19 13 11 7 12 8 4
35 56 73 121 243 206 198 155 149 150 137 127 172 147 96 49 98 107 102 87 81 56 43 35 55 52 50 43 42 45 57 60 61 52 51 49 45 40 35 31 28 23 15 13 10 5 7 12 14
55 97 84 210 230 156 129 165 141 102 112 153 103 126 122 135 120 104 93 83 74 73 60 55 50 54 53 49 42 39 46 55 56 58 49 48 46 42 37 30 27 25 24 23 19 12 11 16 22
131 107 207 185 211 196 198 152 162 158 149 201 145 117 122 171 130 115 101 86 76 72 71 65 64 60 48 53 51 44 41 50 54 57 56 48 48 41 40 31 28 25 26 23 22 19 16 17 34
112 98 153 221 188 227 166 109 41 132 174 105 340 176 177 171 138 118 99 89 82 75 80 81 78 73 66 50 48 47 45 49 48 56 53 52 50 44 41 37 26 29 27 26 26 28 31 39 61
155 98 212 222 164 206 157 144 18 112 114 81 3 13 80 130 132 119 110 96 86 73 69 68 67 63 72 66 52 44 42 46 47 46 51 49 49 44 42 36 30 31 33 32 36 44 51 58 53
133 178 213 204 157 181 170 187 158 157 131 180 152 54 129 137 141 137 137 125 111 96 82 75 70 68 71 72 63 54 45 48 46 40 35 52 50 47 48 37 34 32 36 42 47 51 54 57 51
171 221 205 133 93 103 150 133 163 139 217 194 190 158 156 152 148 140 137 140 134 121 90 77 81 74 71 68 55 53 34 37 42 46 45 50 50 44 40 33 27 25 29 40 52 51 53 58 59
205 218 273 182 13 119 171 118 190 211 132 12 135 156 156 162 160 153 149 149 146 126 109 89 80 80 74 77 68 64 63 57 55 48 45 51 48 47 42 40 31 35 33 54 56 61 63 63 63
211 172 59 23 86 90 132 207 263 220 83 58 125 149 159 158 156 151 147 145 145 128 115 101 100 96 92 85 81 71 60 55 54 51 45 49 57 58 52 46 49 47 45 59 70 72 70 64 63
113 118 143 19 110 69 178 211 131 176 131 120 144 155 159 161 163 144 155 156 149 135 124 120 109 104 100 88 77 70 60 55 55 52 49 53 57 60 54 55 54 53 52 62 72 75 76 73 70
131 123 229 199 194 183 163 255 227 144 147 149 160 157 164 176 168 179 170 162 156 150 138 133 121 110 97 90 82 76 67 65 60 55 51 53 52 59 61 60 63 57 71 86 84 77 77 74 72
102 58 178 171 167 246 166 254 167 160 152 172 176 178 178 185 193 177 171 162 162 148 152 149 130 120 107 102 95 86 70 65 58 52 51 49 53 54 62 67 64 62 78 86 86 88 87 81 74
19 228 198 285 210 161 190 260 142 168 180 190 196 193 194 191 197 190 178 172 170 161 152 136 134 130 122 112 101 86 75 64 59 56 52 49 51 51 63 64 68 76 87 83 94 83 87 91 84
193 214 225 223 184 187 206 257 210 195 190 204 203 206 208 205 207 187 178 176 168 160 150 141 139 137 131 119 107 90 80 66 57 56 53 50 48 47 57 63 64 72 90 88 88 92 73 77 86
133 189 222 200 183 206 236 262 256 198 210 215 210 210 213 215 199 183 182 176 161 162 156 156 150 153 144 136 126 102 88 69 58 52 51 51 51 49 51 60 66 67 85 96 100 97 91 67 43
165 188 230 251 169 204 328 273 254 196 215 207 204 208 210 189 192 185 182 179 181 174 169 163 164 163 169 148 140 132 136 96 82 67 57 52 52 44 54 54 60 65 87 78 64 84 109 66 15
209 193 177 232 191 224 314 275 243 227 212 196 211 209 200 199 192 189 185 189 184 183 179 175 172 171 173 148 125 102 106 109 121 91 77 49 54 52 54 53 58 65 74 79 74 70 94 119 60
225 190 153 147 140 245 321 283 283 235 246 221 212 205 201 194 193 189 187 189 191 194 178 173 173 174 177 165 154 157 154 151 147 127 114 86 66 64 60 60 55 57 57 58 56 43 60 105 114
226 114 124 93 115 359 187 303 266 58 250 232 221 208 205 196 189 189 190 192 191 173 181 178 173 176 175 177 171 161 153 133 138 135 129 117 97 88 86 85 80 73 70 68 58 58 47 46 62
151 80 58 59 85 289 195 187 231 196 208 236 194 205 199 190 189 191 187 175 177 168 169 172 175 186 179 176 175 173 165 160 155 159 152 145 128 106 90 90 90 95 94 91 90 88 79 76 73
10 111 17 344 356 233 11 230 260 273 236 226 209 198 191 184 184 180 175 178 173 176 176 177 180 189 184 182 180 181 178 173 172 169 166 157 153 162 160 145 137 117 113 98 95 96 98 94 95
198 183 166 203 204 252 22 236 247 243 276 237 240 187 170 183 185 186 184 180 179 177 177 179 182 190 185 187 191 187 182 182 178 175 171 170 172 167 164 162 153 143 131 117 114 111 108 106 106
196 213 161 101 54 31 222 281 286 244 251 231 217 173 189 190 186 184 175 179 178 175 180 181 181 190 188 192 185 187 185 183 186 180 176 175 166 164 165 170 166 158 145 142 138 136 127 128 142
155 279 104 9 239 260 267 276 244 270 247 223 217 208 190 187 184 175 175 177 181 179 176 178 183 187 188 187 189 186 186 188 182 170 186 179 173 166 161 172 179 180 178 165 161 149 148 155 166
127 233 41 164 154 185 272 259 217 240 251 205 209 208 195 183 182 181 179 178 177 170 173 179 181 181 181 185 186 183 187 180 175 185 188 183 170 170 175 180 185 190 189 189 190 189 181 208 215
177 198 173 154 232 240 192 253 197 239 269 231 205 191 179 180 184 176 170 165 169 176 175 183 183 185 189 184 180 189 179 172 179 187 185 178 178 177 178 183 192 195 198 195 205 211 211 223 236